Crockett, TX

10:59 PM CDT on June 25, 2017 (GMT -0500)
Crockett

Weather History for KDKR - March, 2014

Change the Weather History Date:

Tuesday, March 4, 2014

  Actual Average (KLFK) Record (KLFK)
Temperature  
Mean Temperature 42 °F -  
Max Temperature 51 °F 64 °F 87 °F (1938)
Min Temperature 32 °F 42 °F 16 °F (1943)
Degree Days  
Heating Degree Days 24    
Moisture  
Dew Point 33 °F    
Average Humidity 83    
Maximum Humidity 100    
Minimum Humidity 54    
Precipitation  
Precipitation 0.00 in - - ()
Sea Level Pressure  
Sea Level Pressure 30.19 in    
Wind  
Wind Speed 0 mph (NE)    
Max Wind Speed 7 mph    
Max Gust Speed -    
Visibility 9 miles    
Events      
Averages and records for this station are not official NWS values.
T = Trace of Precipitation, MM = Missing Value Source: NWS Daily Summary

Daily Weather History Graph

Daily Weather History Graph

Search for Another Location

Airport or City:

Trip Planner

Search our weather history database for the weather conditions in past years. The results will help you decide how hot, cold, wet, or windy it might be!

Date:

Astronomy

Mar. 04, 2014 Rise Set
Actual Time 6:44 AM CST 6:22 PM CST
Civil Twilight 6:20 AM CST 6:46 PM CST
Nautical Twilight 5:52 AM CST 7:14 PM CST
Astronomical Twilight 5:24 AM CST 7:42 PM CST
Moon 8:47 AM CST (3/4) 10:12 PM CST (3/4)
Length of Visible Light 12h 25m
Length of Day
11h 37m
Waxing Crescent, 15% of the Moon is Illuminated
Mar 4
Waxing Crescent
Mar 8
First Quarter
Mar 16
Full
Mar 23
Last Quarter
Mar 30
New

Hourly Weather History & Observations

Time (CST) Temp. Windchill Dew Point Humidity Pressure Visibility Wind Dir Wind Speed Gust Speed Precip Events Conditions
12:15 AM 32.0 °F - 30.2 °F 93% 30.34 in 8.0 mi Calm Calm - N/A   Mostly Cloudy
12:35 AM 32.0 °F - 30.2 °F 93% 30.30 in 8.0 mi Calm Calm - N/A   Overcast
12:55 AM 32.0 °F - 30.2 °F 93% 30.31 in 8.0 mi Calm Calm - N/A   Overcast
1:15 AM 32.0 °F - 30.2 °F 93% 30.30 in 8.0 mi Calm Calm - N/A   Mostly Cloudy
1:35 AM 32.0 °F - 30.2 °F 93% 30.27 in 8.0 mi Calm Calm - N/A   Mostly Cloudy
1:55 AM 32.0 °F - 30.2 °F 93% 30.25 in 8.0 mi Calm Calm - N/A   Mostly Cloudy
2:20 AM 32.0 °F - 32.0 °F 100% 30.23 in 7.0 mi Calm Calm - N/A   Overcast
2:35 AM 32.0 °F - 30.2 °F 93% 30.24 in 8.0 mi Calm Calm - N/A   Overcast
2:55 AM 32.0 °F - 30.2 °F 93% 30.23 in 9.0 mi Calm Calm - N/A   Overcast
3:15 AM 32.0 °F - 30.2 °F 93% 30.23 in 8.0 mi Calm Calm - N/A   Overcast
3:35 AM 32.0 °F - 32.0 °F 100% 30.20 in 9.0 mi Calm Calm - N/A   Overcast
3:55 AM 32.0 °F - 32.0 °F 100% 30.22 in 9.0 mi Calm Calm - N/A   Overcast
4:15 AM 32.0 °F - 32.0 °F 100% 30.23 in 10.0 mi Calm Calm - N/A   Overcast
4:35 AM 33.8 °F - 32.0 °F 93% 30.24 in 10.0 mi Calm Calm - N/A   Overcast
4:55 AM 33.8 °F - 32.0 °F 93% 30.24 in 10.0 mi Calm Calm - N/A   Overcast
5:15 AM 33.8 °F - 32.0 °F 93% 30.26 in 10.0 mi Calm Calm - N/A   Overcast
5:35 AM 33.8 °F - 32.0 °F 93% 30.27 in 10.0 mi Calm Calm - N/A   Overcast
5:55 AM 33.8 °F - 32.0 °F 93% 30.28 in 10.0 mi Calm Calm - N/A   Overcast
6:15 AM 33.8 °F - 32.0 °F 93% 30.28 in 10.0 mi Calm Calm - N/A   Overcast
6:35 AM 33.8 °F - 32.0 °F 93% 30.27 in 10.0 mi Calm Calm - N/A   Overcast
7:00 AM 33.8 °F 30.8 °F 32.0 °F 93% 30.26 in 10.0 mi NNE 3.5 mph - N/A   Overcast
7:15 AM 33.8 °F 30.8 °F 32.0 °F 93% 30.25 in 7.0 mi NNE 3.5 mph - N/A   Overcast
7:35 AM 33.8 °F 29.6 °F 32.0 °F 93% 30.25 in 7.0 mi NNE 4.6 mph - N/A   Overcast
7:55 AM 33.8 °F - 32.0 °F 93% 30.27 in 7.0 mi Calm Calm - N/A   Overcast
8:15 AM 33.8 °F - 32.0 °F 93% 30.26 in 6.0 mi Calm Calm - N/A   Overcast
8:35 AM 33.8 °F 29.6 °F 32.0 °F 93% 30.24 in 6.0 mi NE 4.6 mph - N/A   Overcast
8:55 AM 33.8 °F 27.7 °F 32.0 °F 93% 30.23 in 5.0 mi NE 6.9 mph - N/A   Overcast
9:15 AM 33.8 °F - 32.0 °F 93% 30.23 in 6.0 mi Calm Calm - N/A   Overcast
9:35 AM 33.8 °F - 32.0 °F 93% 30.25 in 7.0 mi Calm Calm - N/A   Overcast
9:55 AM 35.6 °F - 32.0 °F 87% 30.27 in 7.0 mi Calm Calm - N/A   Overcast
10:15 AM 35.6 °F - 32.0 °F 87% 30.26 in 8.0 mi Calm Calm - N/A   Overcast
10:35 AM 35.6 °F - 32.0 °F 87% 30.25 in 8.0 mi Calm Calm - N/A   Overcast
10:55 AM 35.6 °F - 32.0 °F 87% 30.25 in 8.0 mi Calm Calm - N/A   Overcast
11:15 AM 37.4 °F - 32.0 °F 81% 30.26 in 9.0 mi Calm Calm - N/A   Overcast
11:35 AM 37.4 °F - 32.0 °F 81% 30.25 in 8.0 mi Calm Calm - N/A   Overcast
11:55 AM 37.4 °F - 32.0 °F 81% 30.24 in 9.0 mi Calm Calm - N/A   Overcast
12:15 PM 37.4 °F - 32.0 °F 81% 30.24 in 9.0 mi Calm Calm - N/A   Mostly Cloudy
12:35 PM 39.2 °F - 33.8 °F 81% 30.23 in 8.0 mi Calm Calm - N/A   Mostly Cloudy
12:55 PM 41.0 °F - 33.8 °F 76% 30.21 in 9.0 mi Calm Calm - N/A   Scattered Clouds
1:15 PM 42.8 °F - 33.8 °F 70% 30.19 in 10.0 mi Calm Calm - N/A   Partly Cloudy
1:35 PM 44.6 °F - 35.6 °F 71% 30.17 in 9.0 mi Calm Calm - N/A   Partly Cloudy
1:55 PM 44.6 °F - 35.6 °F 71% 30.16 in 9.0 mi Calm Calm - N/A   Partly Cloudy
2:15 PM 46.4 °F - 35.6 °F 66% 30.16 in 10.0 mi Calm Calm - N/A   Clear
2:35 PM 46.4 °F - 35.6 °F 66% 30.14 in 10.0 mi Calm Calm - N/A   Clear
2:55 PM 48.2 °F - 37.4 °F 66% 30.13 in 9.0 mi Calm Calm - N/A   Clear
3:15 PM 48.2 °F - 37.4 °F 66% 30.12 in 10.0 mi Calm Calm - N/A   Partly Cloudy
3:35 PM 50.0 °F - 35.6 °F 58% 30.11 in 10.0 mi Calm Calm - N/A   Partly Cloudy
3:55 PM 51.8 °F - 35.6 °F 54% 30.10 in 10.0 mi Calm Calm - N/A   Partly Cloudy
4:15 PM 51.8 °F - 35.6 °F 54% 30.11 in 10.0 mi Calm Calm - N/A   Clear
4:35 PM 51.8 °F - 35.6 °F 54% 30.11 in 10.0 mi Calm Calm - N/A   Clear
4:55 PM 51.8 °F - 35.6 °F 54% 30.10 in 10.0 mi Calm Calm - N/A   Clear
5:15 PM 51.8 °F - 35.6 °F 54% 30.10 in 10.0 mi Calm Calm - N/A   Clear
5:35 PM 51.8 °F - 37.4 °F 58% 30.10 in 10.0 mi Calm Calm - N/A   Clear
5:55 PM 51.8 °F - 37.4 °F 58% 30.10 in 10.0 mi Calm Calm - N/A   Clear
6:15 PM 50.0 °F - 37.4 °F 62% 30.10 in 10.0 mi Calm Calm - N/A   Clear
6:35 PM 46.4 °F - 37.4 °F 71% 30.10 in 9.0 mi Calm Calm - N/A   Clear
6:55 PM 44.6 °F - 37.4 °F 76% 30.11 in 10.0 mi Calm Calm - N/A   Clear
7:15 PM 44.6 °F - 35.6 °F 71% 30.12 in 10.0 mi Calm Calm - N/A   Clear
7:35 PM 44.6 °F - 35.6 °F 71% 30.11 in 10.0 mi Calm Calm - N/A   Clear
7:55 PM 42.8 °F - 35.6 °F 76% 30.11 in 10.0 mi Calm Calm - N/A   Clear
8:15 PM 39.2 °F - 35.6 °F 87% 30.11 in 10.0 mi Calm Calm - N/A   Clear
8:35 PM 39.2 °F - 35.6 °F 87% 30.11 in 10.0 mi Calm Calm - N/A   Clear
8:55 PM 37.4 °F - 35.6 °F 93% 30.11 in 10.0 mi Calm Calm - N/A   Clear
9:15 PM 37.4 °F - 35.6 °F 93% 30.12 in 10.0 mi Calm Calm - N/A   Clear
9:35 PM 37.4 °F - 35.6 °F 93% 30.12 in 10.0 mi Calm Calm - N/A   Clear
9:55 PM 37.4 °F - 35.6 °F 93% 30.11 in 10.0 mi Calm Calm - N/A   Clear
10:15 PM 35.6 °F - 33.8 °F 93% 30.12 in 10.0 mi Calm Calm - N/A   Clear
10:35 PM 35.6 °F - 33.8 °F 93% 30.12 in 10.0 mi Calm Calm - N/A   Clear
10:55 PM 35.6 °F - 33.8 °F 93% 30.11 in 9.0 mi Calm Calm - N/A   Clear
11:15 PM 35.6 °F - 33.8 °F 93% 30.10 in 9.0 mi Calm Calm - N/A   Clear
11:35 PM 35.6 °F - 33.8 °F 93% 30.10 in 10.0 mi Calm Calm - N/A   Clear
11:55 PM 35.6 °F - 33.8 °F 93% 30.11 in 7.0 mi Calm Calm - N/A   Clear